St John's International Airport

Airport
ICAO code: 
CYYT
IATA Code: 
YTT
Summary
ICAO Region: 
NAM
Territory: 
Location: 
St John's, Newfoundland,
Serving: 
St John's
Elevation: 
461 ft
Coordinates: 
Aerial View: 
47° 37' 7" N, 52° 45' 6.998" W
Metar
Observation
CYYT 190800Z 25018KT 15SM BKN012 BKN120 02/01 A2940 RMK SC5AC2 SLP962
Station
St. John's, Nfld
Date/Time
2022-01-19 08:00:00
Wind direction
250°
Wind speed
18 kts
Lowest cloud amount
broken clouds
Temperature
2°C
Dew point
1°C
Humidity
93%
Weather condition
n/a

Description

St. John's International Airport is an international airport located 3 nm northwest of St. John's, Newfoundland and Labrador, Canada that serves the St. John's Metro Area and the Avalon Peninsula.

Climatology

Humid Continental climate (Köppen climate classification Dfb) - Variable weather patterns and a large seasonal temperature variance. Summers are often warm and humid with frequent thunderstorms and winters can be very cold with frequent snowfall and persistent snow cover.

The separate article climate Newfoundland contains more detail on the climate of Newfoundland and associated weather phenomena.

Runways

Designator Length Width Surface Rops
2/20 1533 30 ASP Yes/Yes
16/34 2135 61 ASP Yes/Yes
11/29 2591 61 ASP Yes/Yes
Airport map: 
Aerial View: 

Accidents and Serious Incidents at or in the vicinity of CYYT

SKYbrary Partners:

Safety knowledge contributed by: